[[{"header":{"parameterUnit":"m.s-1","parameterCategory":1,"la1":30.2991,"la2":30.254,"lo1":-89.0895,"lo2":-89.0444,"dy":0.0017,"dx":0.0017,"nx":28,"ny":28,"refTime":"2025-05-19T21:00:00:Z","depth":0,"parameterNumber":2,"parameterNumberName":"U-component_of_WINDS"},"data":[0,0,0,0,0,0,0,0,0,0,0,0,0,0,0,0,0,0,0,0,0,0,0,0,0,0,0,0,0,0,0,0,0,0,0,0,0,0,0,0,0,0,0,0,0,0,0,0,0,0,0,0,0,0,0,0,0,0,1.0215,1.0215,0,1.0196,1.0196,1.0196,1.0168,1.0168,1.0167,1.0167,1.0146,1.0146,1.0146,0,0,0,0,0,0,0,0,0,0,0,0,0,1.0225,1.0225,1.0215,1.0215,1.0215,1.0196,1.0196,1.0196,1.0168,1.0168,1.0167,1.0167,1.0146,1.0146,1.0146,0,0,0,0,0,0,0,0,0,0,0,0,0,1.0215,1.0225,1.0215,1.0199,1.0197,1.0196,1.0196,1.0196,1.0168,1.0168,1.0167,1.0166,1.0146,1.0146,1.0146,1.0159,0,0,1.0145,1.0145,0,0,0,0,0,0,0,0,1.0215,1.0214,1.0202,1.02,1.0198,1.0184,1.0192,1.0183,1.0169,1.0179,1.0167,1.0166,1.0159,1.0158,1.0156,1.0158,1.0157,1.0145,1.0145,1.0145,1.0145,0,0,0,0,0,0,0,1.0216,1.0215,1.0208,1.0201,1.0199,1.0191,1.0189,1.019,1.0173,1.0178,1.0176,1.0174,1.0158,1.0156,1.0155,1.0157,1.0145,1.0145,1.0145,1.0145,1.0167,1.0167,0,0,0,0,0,0,1.0219,1.0216,1.0208,1.0207,1.0205,1.0192,1.0189,1.0189,1.0173,1.017,1.0175,1.0173,1.0157,1.0155,1.0154,1.0167,1.0145,1.0145,1.0145,1.0166,1.0167,1.0167,0,0,0,0,0,0,1.022,1.0219,1.0209,1.0211,1.0209,1.0193,1.0192,1.0189,1.0187,1.0171,1.0168,1.0176,1.0156,1.0154,1.0158,1.0166,1.0145,1.0145,1.0165,1.0166,1.0167,1.0195,0,0,0,0,0,0,1.022,1.0219,1.0225,1.0211,1.0209,1.0214,1.0193,1.0189,1.0187,1.0185,1.0171,1.0168,1.0155,1.0158,1.0157,1.0166,1.0144,1.0164,1.0166,1.0167,1.0193,1.0197,1.02,0,0,0,0,0,1.0221,1.0234,1.0226,1.0225,1.0216,1.0215,1.0213,1.0198,1.0188,1.0193,1.0182,1.0169,1.0165,1.0159,1.0158,1.0166,1.0164,1.0165,1.0167,1.0192,1.0196,1.02,0,0,0,0,0,0,1.0249,1.0232,1.0223,1.0232,1.0225,1.021,1.0216,1.0204,1.0199,1.0197,1.0178,1.0176,1.0181,1.0174,1.0166,1.0177,1.0162,1.0164,1.0182,1.0186,1.0189,1.019,1.0144,0,0,0,0,0,1.0257,1.0258,1.0242,1.0252,1.0249,1.0233,1.0232,1.0221,1.0213,1.0209,1.0199,1.0191,1.0188,1.0186,1.0183,1.0192,1.0187,1.0197,1.02,1.0203,1.0204,1.0207,1.021,1.0172,1.0172,1.0172,0,0,1.0272,1.0263,1.0265,1.0257,1.0251,1.0251,1.0231,1.0232,1.0232,1.021,1.0212,1.0204,1.0193,1.0199,1.0201,1.0193,1.0214,1.0205,1.0207,1.0207,1.0208,1.0212,1.0215,1.0173,1.0173,1.0173,0,0,1.03,1.0294,1.03,1.0294,1.0284,1.0273,1.0274,1.0261,1.0254,1.0256,1.0239,1.0237,1.0233,1.0226,1.0222,1.0244,1.0231,1.0244,1.0261,1.0264,1.0267,1.0269,1.0276,1.0279,1.0245,1.0245,1.0245,0,1.0321,1.0321,1.0305,1.0307,1.0304,1.0283,1.0289,1.0283,1.0272,1.027,1.0261,1.0254,1.0246,1.0248,1.0254,1.0252,1.0251,1.0245,1.0268,1.027,1.0272,1.0278,1.0281,1.0247,1.0247,1.0246,1.0246,0,1.0346,1.0346,1.0353,1.0343,1.034,1.0344,1.0327,1.0326,1.0315,1.0304,1.0305,1.0294,1.0287,1.0287,1.0276,1.0287,1.0283,1.0271,1.0256,1.0277,1.0283,1.0285,1.0249,1.0248,1.0248,1.0248,0,0,1.0393,1.0373,1.0375,1.0369,1.0356,1.0355,1.0357,1.0351,1.0349,1.0342,1.0342,1.0338,1.0327,1.0322,1.031,1.0312,1.0329,1.0299,1.0299,1.0304,1.0338,1.0347,1.035,1.032,1.032,1.032,1.0339,0,1.0418,1.0421,1.0406,1.0413,1.0412,1.0391,1.0392,1.0384,1.0373,1.037,1.0358,1.0355,1.0341,1.0338,1.0339,1.0326,1.0335,1.0325,1.0319,1.0319,1.0322,1.0353,1.0363,1.0381,1.0341,1.0342,1.0342,0,1.0448,1.0442,1.0448,1.0433,1.0432,1.0434,1.0425,1.0423,1.0411,1.0403,1.0397,1.0383,1.0382,1.0368,1.0365,1.0359,1.0355,1.0348,1.0348,1.0347,1.0332,1.0352,1.0387,1.0389,1.0345,1.0345,1.0345,0,1.048,1.0473,1.0476,1.0472,1.0454,1.0455,1.0448,1.0436,1.0432,1.0424,1.0421,1.0413,1.0409,1.0402,1.0385,1.0377,1.0384,1.0369,1.0377,1.0377,1.038,1.038,1.0414,1.0378,1.0378,1.0378,1.0378,0,1.0509,1.0514,1.049,1.0492,1.0496,1.0477,1.0481,1.0471,1.046,1.0459,1.044,1.0439,1.0417,1.0413,1.0399,1.0398,1.0397,1.0389,1.0386,1.0391,1.0392,1.0388,1.0386,1.0379,1.0379,1.0378,1.0378,0,1.0546,1.0531,1.0532,1.0514,1.051,1.0514,1.0498,1.0498,1.0486,1.0484,1.0482,1.0463,1.0456,1.0439,1.0428,1.0419,1.0422,1.0415,1.0426,1.0423,1.0432,1.0431,1.0464,1.0467,1.0431,1.0431,1.0431,0,1.0566,1.0569,1.0551,1.0549,1.0542,1.0539,1.0534,1.0516,1.0512,1.0498,1.0499,1.0491,1.0484,1.0474,1.0459,1.045,1.0443,1.0455,1.0441,1.0446,1.0441,1.0441,1.0441,1.0458,1.0458,1.0459,1.0459,0,1.0602,1.0593,1.0588,1.058,1.0576,1.0568,1.056,1.0559,1.0537,1.0533,1.0527,1.0521,1.0509,1.0501,1.049,1.048,1.0465,1.0463,1.0464,1.047,1.0475,1.0471,1.0433,1.0463,1.0462,1.0462,1.0462,1.0462,1.063,1.0631,1.0618,1.0613,1.0604,1.0596,1.0595,1.0582,1.0577,1.0566,1.0555,1.0549,1.0535,1.0518,1.0509,1.0503,1.0496,1.0498,1.0498,1.0499,1.0501,1.0476,1.0501,1.0501,1.0501,1.0501,1.0501,0,1.0664,1.0654,1.065,1.0638,1.0633,1.062,1.0609,1.0606,1.0601,1.059,1.0583,1.0574,1.0565,1.0548,1.0538,1.0536,1.0529,1.0534,1.0534,1.0531,1.0508,1.0508,1.054,1.054,1.054,1.054,1.054,1.054,1.0681,1.0682,1.0672,1.0667,1.0657,1.0652,1.0646,1.0638,1.0629,1.062,1.0613,1.0602,1.0588,1.0576,1.0567,1.0562,1.0558,1.0565,1.0558,1.0537,1.0533,1.053,1.0529,1.0565,1.0565,1.0581,1.0582,1.0582]},{"header":{"parameterUnit":"m.s-1","parameterCategory":1,"la1":30.2991,"la2":30.254,"lo1":-89.0895,"lo2":-89.0444,"dy":0.0017,"dx":0.0017,"nx":28,"ny":28,"refTime":"2025-05-19T21:00:00:Z","depth":0,"parameterNumber":3,"parameterNumberName":"V-component_of_WINDS"},"data":[0,0,0,0,0,0,0,0,0,0,0,0,0,0,0,0,0,0,0,0,0,0,0,0,0,0,0,0,0,0,0,0,0,0,0,0,0,0,0,0,0,0,0,0,0,0,0,0,0,0,0,0,0,0,0,0,0,0,4.4056,4.4056,0,4.4043,4.4042,4.4042,4.4005,4.4005,4.4004,4.4003,4.3988,4.3989,4.3989,0,0,0,0,0,0,0,0,0,0,0,0,0,4.4051,4.4052,4.4056,4.4056,4.4056,4.4043,4.4042,4.4042,4.4006,4.4005,4.4004,4.4003,4.3988,4.3988,4.3989,0,0,0,0,0,0,0,0,0,0,0,0,0,4.4047,4.4052,4.4056,4.4036,4.4034,4.4043,4.4042,4.4042,4.4006,4.4005,4.4003,4.4002,4.3988,4.3988,4.3989,4.4016,0,0,4.399,4.3991,0,0,0,0,0,0,0,0,4.4047,4.4047,4.4039,4.4038,4.4035,4.4025,4.4035,4.4033,4.4006,4.4017,4.4003,4.4002,4.4001,4.4001,4.4,4.4015,4.4014,4.3991,4.3991,4.3991,4.3991,0,0,0,0,0,0,0,4.4048,4.4048,4.4051,4.4039,4.4037,4.4028,4.4026,4.4035,4.4016,4.4015,4.4013,4.4012,4.4,4.4,4.4,4.4014,4.3991,4.3991,4.3991,4.3991,4.4052,4.4053,0,0,0,0,0,0,4.4051,4.4048,4.4051,4.405,4.4039,4.4029,4.4027,4.4029,4.4015,4.4012,4.4013,4.401,4.4,4.3999,4.3999,4.4031,4.3991,4.3992,4.3992,4.405,4.4052,4.4053,0,0,0,0,0,0,4.4051,4.4052,4.4052,4.4049,4.4048,4.403,4.4033,4.403,4.403,4.4013,4.401,4.4016,4.3999,4.3998,4.4012,4.403,4.3992,4.3992,4.4049,4.4051,4.4053,4.4093,0,0,0,0,0,0,4.4051,4.4052,4.4062,4.4049,4.4048,4.4065,4.4034,4.403,4.4031,4.4027,4.4016,4.4013,4.3998,4.4012,4.4013,4.403,4.3993,4.4047,4.405,4.4052,4.409,4.4096,4.4101,0,0,0,0,0,4.4051,4.4073,4.4062,4.4063,4.406,4.4066,4.4066,4.4048,4.4032,4.4042,4.4032,4.4013,4.4028,4.4013,4.4014,4.4032,4.4046,4.4049,4.4052,4.4088,4.4095,4.4101,0,0,0,0,0,0,4.4087,4.4071,4.4059,4.4077,4.4074,4.406,4.4072,4.4056,4.4057,4.4053,4.4031,4.4029,4.4046,4.404,4.4025,4.4058,4.4034,4.4037,4.4061,4.4068,4.4073,4.4074,4.3993,0,0,0,0,0,4.4097,4.4104,4.4089,4.4107,4.4106,4.4089,4.4091,4.4078,4.4073,4.4071,4.4062,4.4058,4.4062,4.4064,4.4067,4.4089,4.4087,4.4102,4.4107,4.4112,4.4115,4.4128,4.4135,4.4063,4.4063,4.4063,0,0,4.4118,4.411,4.4115,4.4114,4.411,4.4117,4.4088,4.4097,4.4102,4.4072,4.4085,4.4079,4.4072,4.4091,4.4099,4.4087,4.4135,4.4116,4.412,4.412,4.4132,4.4139,4.4145,4.4065,4.4065,4.4064,0,0,4.416,4.4155,4.417,4.4166,4.416,4.4149,4.4153,4.4142,4.4137,4.4149,4.4128,4.4134,4.4141,4.4138,4.4137,4.418,4.4163,4.4182,4.4211,4.4224,4.4229,4.4234,4.4251,4.4257,4.4185,4.4185,4.4185,0,4.4187,4.4197,4.4179,4.419,4.419,4.4165,4.418,4.4177,4.4172,4.4174,4.416,4.4169,4.4163,4.4181,4.4192,4.4192,4.4196,4.4183,4.423,4.4235,4.4239,4.4255,4.4261,4.4187,4.4187,4.4187,4.4186,0,4.4231,4.4238,4.4251,4.4248,4.425,4.4263,4.4247,4.4251,4.4239,4.423,4.4244,4.4236,4.4237,4.4241,4.4228,4.4258,4.4251,4.4234,4.421,4.4249,4.4263,4.4268,4.419,4.419,4.4189,4.4188,0,0,4.4293,4.4282,4.4287,4.4286,4.4278,4.4284,4.4296,4.4298,4.4302,4.43,4.431,4.4317,4.4303,4.4302,4.4289,4.43,4.4337,4.4282,4.4282,4.4293,4.437,4.4383,4.439,4.4326,4.4327,4.4328,4.4371,0,4.4334,4.4354,4.4339,4.4362,4.437,4.4347,4.4358,4.4355,4.4347,4.4352,4.4344,4.4349,4.4329,4.4329,4.4339,4.433,4.4352,4.4327,4.4335,4.4336,4.4338,4.4397,4.441,4.4452,4.4376,4.4377,4.4378,0,4.4383,4.4384,4.4408,4.4401,4.4403,4.4413,4.4415,4.442,4.4416,4.441,4.4411,4.4395,4.4407,4.4384,4.4401,4.4385,4.4387,4.4384,4.4385,4.4385,4.4359,4.44,4.4464,4.4471,4.4386,4.4386,4.4385,0,4.4427,4.4435,4.4451,4.445,4.4442,4.445,4.4446,4.4442,4.4444,4.4446,4.4447,4.445,4.4451,4.4454,4.444,4.4424,4.4459,4.4434,4.4455,4.4455,4.4463,4.4463,4.453,4.4465,4.4465,4.4465,4.4464,0,4.4474,4.4489,4.4471,4.4481,4.4498,4.4481,4.4499,4.4493,4.449,4.4499,4.4479,4.4487,4.4469,4.4475,4.4465,4.4481,4.4482,4.4478,4.4475,4.4479,4.448,4.4481,4.4478,4.4466,4.4466,4.4465,4.4465,0,4.4526,4.4514,4.453,4.4521,4.4519,4.4533,4.4525,4.4534,4.4526,4.4537,4.4539,4.4526,4.4533,4.452,4.4525,4.4518,4.4542,4.4534,4.4543,4.4541,4.4562,4.4561,4.4633,4.4642,4.457,4.4571,4.4572,0,4.4556,4.4568,4.4561,4.4566,4.4564,4.4572,4.4575,4.4559,4.4563,4.4561,4.4571,4.4576,4.458,4.4593,4.4584,4.4589,4.4581,4.4606,4.4582,4.4587,4.4583,4.4582,4.4584,4.4611,4.4612,4.4613,4.4613,0,4.4612,4.4606,4.4611,4.4615,4.4619,4.4621,4.4622,4.4627,4.461,4.4616,4.4624,4.4627,4.4633,4.464,4.4642,4.4639,4.4624,4.4621,4.4626,4.4632,4.4637,4.4635,4.4557,4.462,4.4619,4.4619,4.4618,4.4618,4.4654,4.4664,4.4662,4.4669,4.4668,4.4669,4.4678,4.4671,4.4678,4.4682,4.4672,4.4683,4.468,4.4683,4.4682,4.469,4.4679,4.4686,4.4688,4.469,4.4694,4.4636,4.469,4.469,4.469,4.469,4.4689,0,4.4709,4.4707,4.4714,4.4716,4.4722,4.4708,4.4708,4.4714,4.4723,4.4723,4.4727,4.4737,4.4744,4.4736,4.4742,4.475,4.4743,4.4752,4.4751,4.4751,4.4703,4.4698,4.4757,4.4757,4.4757,4.4757,4.4757,4.4757,4.4739,4.4755,4.475,4.4766,4.4764,4.4774,4.4776,4.4778,4.4777,4.4789,4.4795,4.479,4.4787,4.4793,4.4799,4.4796,4.4799,4.4811,4.4806,4.4761,4.4754,4.4748,4.4744,4.4811,4.4812,4.4854,4.4854,4.4855]}]]